Newport, RI

1:05 AM EDT on June 23, 2017 (GMT -0400)
Newport State

Weather History for KUUU - October, 2011

Change the Weather History Date:

Monday, October 3, 2011

  Actual Average Record
Temperature  
Mean Temperature 59 °F -  
Max Temperature 64 °F 67 °F 78 °F (2000)
Min Temperature 54 °F 51 °F 39 °F (1996)
Degree Days  
Heating Degree Days 6    
Growing Degree Days 9 (Base 50)    
Moisture  
Dew Point 53 °F    
Average Humidity 85    
Maximum Humidity 100    
Minimum Humidity 52    
Precipitation  
Precipitation 0.12 in - - ()
Sea Level Pressure  
Sea Level Pressure 30.02 in    
Wind  
Wind Speed 2 mph (South)    
Max Wind Speed 10 mph    
Max Gust Speed 17 mph    
Visibility 8 miles    
Events Rain    
Averages and records for this station are not official NWS values.
T = Trace of Precipitation, MM = Missing Value Source: NWS Daily Summary

Daily Weather History Graph

Daily Weather History Graph

Search for Another Location

Airport or City:

Trip Planner

Search our weather history database for the weather conditions in past years. The results will help you decide how hot, cold, wet, or windy it might be!

Date:

Astronomy

Oct. 03, 2011 Rise Set
Actual Time 6:43 AM EDT 6:24 PM EDT
Civil Twilight 6:16 AM EDT 6:51 PM EDT
Nautical Twilight 5:43 AM EDT 7:23 PM EDT
Astronomical Twilight 5:11 AM EDT 7:56 PM EDT
Moon 1:43 PM EDT (10/3) 11:19 PM EDT (10/3)
Length of Visible Light 12h 35m
Length of Day
11h 40m
Waxing Crescent, 45% of the Moon is Illuminated
Oct 3
Waxing Crescent
Oct 3
First Quarter
Oct 11
Full
Oct 19
Last Quarter
Oct 26
New

Hourly Weather History & Observations

Time (EDT) Temp. Dew Point Humidity Pressure Visibility Wind Dir Wind Speed Gust Speed Precip Events Conditions
12:53 AM 54.0 °F 53.1 °F 97% 29.92 in 10.0 mi Calm Calm - N/A   Scattered Clouds
1:53 AM 55.0 °F 54.0 °F 96% 29.93 in 10.0 mi Calm Calm - N/A   Overcast
2:53 AM 57.0 °F 55.0 °F 93% 29.93 in 10.0 mi NNW 3.5 mph - N/A   Scattered Clouds
3:39 AM 57.2 °F 55.4 °F 94% 29.96 in 10.0 mi Calm Calm - N/A   Overcast
3:53 AM 59.0 °F 55.9 °F 90% 29.95 in 10.0 mi Calm Calm - N/A   Overcast
4:14 AM 57.2 °F 55.4 °F 94% 29.96 in 10.0 mi West 3.5 mph - N/A   Overcast
4:53 AM 57.0 °F 55.0 °F 93% 29.97 in 10.0 mi Calm Calm - N/A   Overcast
5:53 AM 55.0 °F 54.0 °F 96% 29.99 in 10.0 mi Calm Calm - N/A   Mostly Cloudy
6:53 AM 55.0 °F 53.1 °F 93% 30.01 in 10.0 mi Calm Calm - N/A   Partly Cloudy
7:53 AM 57.9 °F 52.0 °F 81% 30.04 in 10.0 mi Calm Calm - N/A   Mostly Cloudy
8:53 AM 61.0 °F 46.9 °F 60% 30.06 in 10.0 mi South 6.9 mph - N/A   Partly Cloudy
10:53 AM 62.1 °F 48.0 °F 60% 30.08 in 10.0 mi South 10.4 mph - N/A   Overcast
11:53 AM 64.0 °F 46.9 °F 54% 30.08 in 10.0 mi SSW 8.1 mph 17.3 mph N/A   Partly Cloudy
12:53 PM 64.0 °F 46.9 °F 54% 30.06 in 10.0 mi Variable 4.6 mph - N/A   Clear
2:53 PM 64.0 °F 46.0 °F 52% 30.05 in 10.0 mi South 9.2 mph - N/A   Mostly Cloudy
3:53 PM 62.1 °F 46.0 °F 56% 30.05 in 10.0 mi South 3.5 mph - N/A   Overcast
4:53 PM 62.1 °F 46.0 °F 56% 30.04 in 10.0 mi ESE 3.5 mph - N/A   Partly Cloudy
6:53 PM 57.9 °F 52.0 °F 81% 30.04 in 10.0 mi ENE 4.6 mph - 0.00 in Rain Light Rain
7:53 PM 57.0 °F 54.0 °F 89% 30.06 in 10.0 mi East 6.9 mph - 0.00 in Rain Light Rain
9:53 PM 57.0 °F 55.9 °F 96% 30.04 in 10.0 mi Calm Calm - 0.01 in Rain Light Rain
10:15 PM 55.4 °F 55.4 °F 100% 30.04 in 1.8 mi NNW 3.5 mph - 0.07 in Rain Rain
10:22 PM 55.4 °F 55.4 °F 100% 30.04 in 1.2 mi Calm Calm - 0.11 in Rain Heavy Rain
10:27 PM 55.4 °F 55.4 °F 100% 30.04 in 3.0 mi Calm Calm - 0.11 in Rain Light Rain
10:53 PM 55.9 °F 55.9 °F 100% 30.03 in 9.0 mi Calm Calm - 0.11 in Rain Light Rain
11:16 PM 55.4 °F 55.4 °F 100% 30.03 in 3.0 mi Calm Calm - 0.04 in Rain Heavy Rain
11:23 PM 55.4 °F 55.4 °F 100% 30.02 in 3.0 mi North 4.6 mph - 0.05 in Rain Rain
11:36 PM 55.4 °F 55.4 °F 100% 30.01 in 2.0 mi NNW 5.8 mph - 0.14 in Rain Heavy Rain